Regional Weather Roundup
Issued by NWS

Home | Current Version | Previous Version | Text Only | Print | Product List | Glossary On
Versions: 1 2 3 4 5 6 7 8 9 10 11 12 13 14 15 16 17 18 19 20 21 22 23 24 25 26 27 28 29 30 31 32 33 34 35 36 37 38 39 40 41 42 43 44 45 46 47 48 49
000
ASUS45 KBOU 021607
RWRCO

WEATHER ROUNDUP FOR COLORADO
NATIONAL WEATHER SERVICE DENVER/BOULDER CO
900 AM MST MON MAR 02 2015

NOTE: "FAIR" INDICATES FEW OR NO CLOUDS BELOW 12000 FEET WITH NO
SIGNIFICANT WEATHER AND/OR OBSTRUCTIONS TO VISIBILITY.

COZ001>005-013-030-031-021700-
...NORTHWEST COLORADO...

CITY           SKY/WX    TMP DP  RH WIND       PRES   REMARKS
CRAIG          LGT RAIN  33  31  92 E9        29.82F FOG     WCI  25
HAYDEN         CLOUDY    30  27  86 SE7       29.83S WCI  23
MEEKER         RAIN      36  33  89 SW7       29.83R FOG
MOUNT WERNER   NOT AVBL
STEAMBOAT SPGS CLOUDY    29  27  92 CALM      29.83F
WALDEN         CLOUDY    32  28  86 S5        29.84F WCI  27
$$

COZ006>008-011-021700-
...WEST CENTRAL VALLEYS...

CITY           SKY/WX    TMP DP  RH WIND       PRES   REMARKS
GRAND JUNCTION LGT RAIN  37  36  96 SW7       29.83F
MONTROSE       CLOUDY    40  30  67 E13       29.88F
EAGLE          LGT SNOW  34  32  93 CALM      29.90F FOG
RIFLE          LGT RAIN  34  32  92 CALM      29.86S
DELTA          CLOUDY    45  40  85 N9        29.86F
NUCLA          CLOUDY    46  32  57 S17G26    29.89F
$$

COZ017>023-064>068-021700-
...SOUTHWEST COLORADO...

CITY           SKY/WX    TMP DP  RH WIND       PRES   REMARKS
DURANGO        CLOUDY    34  33  96 E5        30.01R WCI  30
CORTEZ         PTSUNNY   45  35  68 SE24G30   29.91F
PAGOSA SPRINGS CLOUDY    36  36 100 NE3       30.05R
TELLURIDE      FLURRIES  37  26  62 SE16G24   29.97S
WOLF CREEK PAS CLOUDY    21  21 100 SW17G28   30.10R WCI   7
$$

COZ009-010-012-014-032>034-037-058>063-021700-
...CENTRAL COLORADO...

CITY           SKY/WX    TMP DP  RH WIND       PRES   REMARKS
ASPEN          PTSUNNY   35  33  92 W3        29.87F
BUENA VISTA    PTSUNNY   25  19  78 CALM      29.97F HAZE
COPPER MTN     PTSUNNY   30  21  69 S21       29.97S WCI  17
BERTHOUD PASS  LGT SNOW  21  16  79 SW30G38   29.97S WCI   3
COTTONWOOD PAS FOG       30  28  93 CALM      29.96S VSB<1/4
GUNNISON       CLOUDY    27  23  86 CALM      30.00S
KREMMLING      CLOUDY    30  27  86 CALM      29.90F
LEADVILLE      CLOUDY    25  23  92 CALM      29.93F FOG
SALIDA         PTSUNNY   28  21  72 N7        30.05F WCI  21
SUNLIGHT       LGT SNOW  30  28  93 S3        29.92
WILKERSON PASS MOSUNNY   27  25  93 S8G17     30.01R WCI  18
$$

COZ069>075-021700-
...SAN LUIS VALLEY/SANGRE DE CRISTO MOUNTAINS...

CITY           SKY/WX    TMP DP  RH WIND       PRES   REMARKS
ALAMOSA        CLOUDY    38  28  67 S15       30.01S
LA VETA PASS   CLOUDY    30  25  80 S12G22    30.06F WCI  21
SAGUACHE       MOSUNNY   34  30  86 SE8       30.03R WCI  27
$$

COZ035-036-038>040-021700-
...NORTHERN COLORADO FRONT RANGE...

CITY           SKY/WX    TMP DP  RH WIND       PRES   REMARKS
DENVER INTL AP CLOUDY    21  18  88 W6        29.94F FOG     WCI  13
DMNS CITY PARK   N/A     28  17  61 NW1       29.94F
AURORA         NOT AVBL
FRONT RANGE AP PTSUNNY   21  19  93 SW8       29.95F FOG     WCI  12
ERIE MUNI ARPT CLOUDY    24  20  84 W3        29.95F FOG
BOULDER MUN AP CLOUDY    25  19  80 N3        29.93F HAZE
CENTENNIAL     MOSUNNY   19  15  84 SE6       29.92F FOG     WCI  11
BROOMFIELD     PTSUNNY   21  19  93 CALM      29.94F FOG
FORT COLLINS   SUNNY     25  19  80 N9        29.95F WCI  15
LONGMONT       CLOUDY    30  20  67 CALM      29.97F
$$

COZ041-046-047-076>085-087-088-021700-
...PIKES PEAK/PALMER DIVIDE AND SOUTHERN FOOTHILLS...

CITY           SKY/WX    TMP DP  RH WIND       PRES   REMARKS
COLO. SPRINGS  CLOUDY    20  18  92 S3        30.00S FOG
A. F. ACADEMY  CLOUDY    19  17  89 SW7       29.96F WCI  10
ELLICOTT       NOT AVBL
FALCON         FOG       21  20  96 SW10      29.97S VSB 1/2 WCI  10
FORT CARSON    PTSUNNY   20  19  95 S10       29.99S FOG     WCI   9
LIMON          CLOUDY    22  19  89 S23       30.00F FOG     WCI   6
MONUMENT HILL  SUNNY     27  19  74 SW12G18   29.89S WCI  16
TRINIDAD       FOG       26  24  92 E6        30.00S VSB 1/2 WCI  19
$$

COZ042>045-048>051-090-091-021700-
...NORTHEAST COLORADO...

CITY           SKY/WX    TMP DP  RH WIND       PRES   REMARKS
GREELEY ARPT   SUNNY     27  14  59 CALM      29.96S
AKRON          CLOUDY    26  20  77 S21G29    30.01F WCI  12
BURLINGTON     CLOUDY    25  21  85 S23G30    30.09F WCI  10
WRAY           CLOUDY    29  22  73 S15       30.10F WCI  18
STERLING       CLOUDY    32  21  64 S14G20    30.03F WCI  22
HOLYOKE        NOT AVBL
FORT MORGAN    MOSUNNY   32  21  64 S17       29.98F WCI  21
$$

COZ086-089-092>099-021700-
...SOUTHEAST COLORADO...

CITY           SKY/WX    TMP DP  RH WIND       PRES   REMARKS
PUEBLO         CLOUDY    25  22  88 SE7       30.05F WCI  17
LA JUNTA       CLOUDY    31  25  78 SE6       30.07F WCI  25
LAMAR          CLOUDY    28  24  85 SE14      30.10F FOG     WCI  17
SPRINGFIELD      N/A     26  23  88 S26       30.09F WCI  10
$$



USA.gov is the U.S. government's official web portal to all federal, state and local government web resources and services.